Tracking 22124 objects as of 23-Jan-2021
HD Live streaming from Space Station
objects crossing your sky now

STARLINK-1762

Track STARLINK-1762 now!
10-day predictions
STARLINK-1762 is classified as:


NORAD ID: 46342
Int'l Code: 2020-062T
Perigee: 553.4 km
Apogee: 555.3 km
Inclination: 53.1 °
Period: 95.6 minutes
Semi major axis: 6925 km
RCS: Unknown
Launch date: September 3, 2020
Source: United States (US)
Launch site: AIR FORCE EASTERN TEST RANGE (AFETR)
aabbcc
Your satellite tracking list
Your tracking list is empty




NASA's NSSDC Master Catalog

Two Line Element Set (TLE):
1 46342U 20062T   21023.16667824 -.00010205  00000-0 -66699-3 0  9996
2 46342  53.0555 138.1873 0001380  54.7530 126.2459 15.06411709 22402
Source of the keplerian elements: AFSPC